Weather History for KMAF - July, 2013

Change the Weather History Date:

Wednesday, July 3, 2013

  Actual Average Record
Temperature  
Mean Temperature 76 °F 82 °F  
Max Temperature 90 °F 95 °F 106 °F (1994)
Min Temperature 62 °F 70 °F 61 °F (1942)
Cooling Degree Days 11 17  
Month to date cooling degree days 31 51  
Year to date cooling degree days 1083 901  
Since 1 June cooling degree days 595 512  
Growing Degree Days 26 (Base 50)    
Moisture  
Dew Point 44 °F    
Average Humidity 38    
Maximum Humidity 56    
Minimum Humidity 19    
Precipitation  
Precipitation 0.00 in 0.06 in 1.68 in (1975)
Month to date precipitation 0.12 0.18  
Year to date precipitation 2.53 6.24  
Sea Level Pressure  
Sea Level Pressure 29.93 in    
Wind  
Wind Speed 10 mph (SE)    
Max Wind Speed 20 mph    
Max Gust Speed 25 mph    
Visibility 10 miles    
Events      
T = Trace of Precipitation, MM = Missing Value Source: NWS Daily Summary

Daily Weather History Graph

Daily Weather History Graph

Search for Another Location

Airport or City:

Trip Planner

Search our weather history database for the weather conditions in past years. The results will help you decide how hot, cold, wet, or windy it might be!

Date:

Astronomy

Jul. 03, 2013 Rise Set
Actual Time 6:47 AM CDT 8:58 PM CDT
Civil Twilight 6:19 AM CDT 9:26 PM CDT
Nautical Twilight 5:45 AM CDT 10:00 PM CDT
Astronomical Twilight 5:08 AM CDT 10:37 PM CDT
Moon 3:19 AM CDT (7/3) 5:16 PM CDT (7/3)
Length of Visible Light 15h 07m
Length of Day
14h 11m
Waning Crescent, 18% of the Moon is Illuminated
Jul 3
Waning Crescent
Jul 8
New
Jul 15
First Quarter
Jul 22
Full
Jul 29
Last Quarter

Hourly Weather History & Observations

Time (CDT) Temp. Dew Point Humidity Pressure Visibility Wind Dir Wind Speed Gust Speed Precip Events Conditions
12:53 AM 71.1 °F 46.0 °F 41% 30.01 in 10.0 mi SE 5.8 mph - N/A   Clear
1:53 AM 71.1 °F 44.1 °F 38% 30.00 in 10.0 mi SE 10.4 mph - N/A   Clear
2:53 AM 69.1 °F 45.0 °F 42% 30.00 in 10.0 mi SSE 6.9 mph - N/A   Clear
3:53 AM 66.0 °F 46.0 °F 48% 29.99 in 10.0 mi ESE 6.9 mph - N/A   Clear
4:53 AM 66.0 °F 46.9 °F 50% 29.98 in 10.0 mi SSE 3.5 mph - N/A   Clear
5:53 AM 64.0 °F 46.9 °F 54% 29.98 in 10.0 mi East 4.6 mph - N/A   Clear
6:53 AM 63.0 °F 46.9 °F 56% 29.99 in 10.0 mi East 3.5 mph - N/A   Clear
7:53 AM 66.9 °F 46.9 °F 49% 29.99 in 10.0 mi SE 5.8 mph - N/A   Clear
8:53 AM 71.1 °F 46.0 °F 41% 30.00 in 10.0 mi SE 10.4 mph - N/A   Clear
9:53 AM 77.0 °F 44.1 °F 31% 29.99 in 10.0 mi South 15.0 mph - N/A   Clear
10:53 AM 82.0 °F 43.0 °F 25% 29.98 in 10.0 mi South 17.3 mph - N/A   Clear
11:53 AM 84.9 °F 45.0 °F 25% 29.97 in 10.0 mi South 17.3 mph 21.9 mph N/A   Clear
12:53 PM 84.9 °F 44.1 °F 24% 29.95 in 10.0 mi South 11.5 mph - N/A   Scattered Clouds
1:53 PM 88.0 °F 44.1 °F 22% 29.93 in 10.0 mi South 11.5 mph 24.2 mph N/A   Clear
2:53 PM 88.0 °F 43.0 °F 21% 29.91 in 10.0 mi Variable 5.8 mph 17.3 mph N/A   Clear
3:53 PM 90.0 °F 43.0 °F 19% 29.89 in 10.0 mi South 10.4 mph 18.4 mph N/A   Scattered Clouds
4:53 PM 88.0 °F 42.1 °F 20% 29.87 in 10.0 mi SSE 15.0 mph 25.3 mph N/A   Mostly Cloudy
5:53 PM 88.0 °F 41.0 °F 19% 29.86 in 10.0 mi South 15.0 mph - N/A   Scattered Clouds
6:53 PM 88.0 °F 41.0 °F 19% 29.84 in 10.0 mi SE 16.1 mph 20.7 mph N/A   Clear
7:53 PM 86.0 °F 41.0 °F 20% 29.84 in 10.0 mi ESE 16.1 mph - N/A   Clear
8:53 PM 84.0 °F 39.9 °F 21% 29.83 in 10.0 mi ESE 11.5 mph - N/A   Clear
9:53 PM 81.0 °F 41.0 °F 24% 29.83 in 10.0 mi SE 10.4 mph - N/A   Clear
10:53 PM 79.0 °F 41.0 °F 26% 29.86 in 10.0 mi SSE 6.9 mph - N/A   Clear
11:53 PM 77.0 °F 42.1 °F 29% 29.86 in 10.0 mi ESE 8.1 mph - N/A   Clear